(25) Phocaea
ephemeris date magn radius delta ra dec elong phase
Today26 Dec 202412.01.791 AU2.630 AU19h38m-06°47'25.3°13.6°
Opposition22 Nov 202511.42.545 AU1.582 AU04h06m+04°29'163.9°6.2°
(25) Phocaea - 2024-12-26
astro.vanbuitenen.nl


 
-1 year
-1 month
-1 day
Now
+1 day
+1 month
+1 year

The interactive orbit chart above shows the body's path through the solar system and its position at the given date. Green and blue lines are shown perpendicular to the ecliptic plane: Green if the path is above the ecliptic plane, blue if it is below. (Left-click and drag to rotate the view; Right-click and drag to move the view; Use scroll wheel to zoom in our out.)

The orbital elements of Phocaea are:

            e (Eccentricity)                : 0.2542429
            a (Semimajor axis)              : 2.4004501
            i (Inclination)                 : 21.60817
            Ω (Longitude of ascending node) : 214.09236
            ω (Argument of perihelion)      : 90.20199
            M (Mean anomaly)                : 343.19156
            Epoch                           : 2024 Oct 17

            L (Longitude of perihelion)     : 124.30962
            B (Latitude of perihelion)      : 21.60803
            P (Orbital period in years)     : 3.72            
        

The light curve chart below shows the estimated development of the minor planet's magnitude.


The all-sky chart below shows the path of the minor planet over the same period as the light curve. The current position is marked yellow.





The following chart shows the path of the minor planet in the next few days. The field of view is optimized for (~10x50) binoculars and finderscopes. A more printer-friendly version of the same chart can be found below.




Ephemerides:
Date       Time       RA (2000)    DEC (2000)    delta   radius  elong  phase   PA    magn
2024-12-26 00:00 UT   19 38 40.3   -06 47 39     2.630    1.791   25.3   13.6    47   12.0 
2024-12-26 12:33 UT   19 40 03.5   -06 44 47     2.631    1.791   25.2   13.5    47   12.0 
2024-12-27 00:00 UT   19 41 19.4   -06 42 09     2.633    1.791   25.0   13.4    46   12.0 
2024-12-28 00:00 UT   19 43 58.4   -06 36 32     2.636    1.791   24.8   13.3    46   12.0 
2024-12-29 00:00 UT   19 46 37.4   -06 30 46     2.639    1.791   24.5   13.1    45   12.0 
2024-12-30 00:00 UT   19 49 16.3   -06 24 52     2.643    1.791   24.2   13.0    44   12.0 
2024-12-31 00:00 UT   19 51 55.1   -06 18 51     2.646    1.792   23.9   12.9    44   12.0 
2025-01-01 00:00 UT   19 54 33.9   -06 12 41     2.649    1.792   23.6   12.7    43   12.0 
2025-01-02 00:00 UT   19 57 12.6   -06 06 23     2.652    1.792   23.4   12.6    42   12.0 
2025-01-03 00:00 UT   19 59 51.2   -05 59 57     2.655    1.793   23.1   12.4    41   12.0 
2025-01-04 00:00 UT   20 02 29.7   -05 53 23     2.658    1.793   22.8   12.3    41   12.0 
2025-01-05 00:00 UT   20 05 08.1   -05 46 42     2.662    1.793   22.5   12.1    40   12.0 
2025-01-06 00:00 UT   20 07 46.4   -05 39 53     2.665    1.794   22.3   12.0    39   12.0 
2025-01-07 00:00 UT   20 10 24.5   -05 32 57     2.668    1.794   22.0   11.8    39   12.0 


    Terminology:
            
    delta:  distance between minor planet and earth in AU
    radius: distance between minor planet and sun in AU
    magn:   magnitude (brightness) estimate    
    ra:     right ascension in hours (24h = 360deg)
    dec:    declination in degrees
    elong:  elongation in degrees (angle sun-earth-minor planet)    
    phase:  phase angle in degrees (angle sun-minor planet-earth)        
    AU:     Astronomical Unit (mean distance between earth and sun: 149597870.7 km
    

Orbital elements provided by the MPC (Minor Planet Center).
Calculations by a modified version of AAPlus, a C# implementation of the AA+ project by PJ Naughter from the algorithms presented in the book "Astronomical Algorithms" by Jean Meeus.
NGC2000 dso catalog and star labels from VizieR as provided by the Strasbourg astronomical Data Center.
Tycho2 catalog from the ESO archive.